Kansas City International, MO

7:49 PM CST on February 25, 2018 (GMT -0600)
Kansas City International

Weather History for KMCI - March, 2012

Change the Weather History Date:

Thursday, March 29, 2012

  Actual Average Record
Temperature  
Mean Temperature 68 °F 49 °F  
Max Temperature 79 °F 60 °F 86 °F (1986)
Min Temperature 57 °F 38 °F 18 °F (1969)
Degree Days  
Heating Degree Days 0 16  
Month to date heating degree days 248 615  
Since 1 July heating degree days 3755 4660  
Cooling Degree Days 3 0  
Month to date cooling degree days 41 0  
Year to date cooling degree days 41 0  
Growing Degree Days 18 (Base 50)    
Moisture  
Dew Point 57 °F    
Average Humidity 71    
Maximum Humidity 93    
Minimum Humidity 48    
Precipitation  
Precipitation 0.15 in 0.09 in 1.44 in (2017)
Month to date precipitation 4.56 2.18  
Year to date precipitation 7.75 4.71  
Snow  
Snow 0.00 in 0.00 in 4.30 in (1926)
Month to date snowfall 0.8 1.9  
Since 1 July snowfall 3.9 18.1  
Snow Depth 0.00 in    
Sea Level Pressure  
Sea Level Pressure 29.81 in    
Wind  
Wind Speed 17 mph (SE)    
Max Wind Speed 28 mph    
Max Gust Speed 38 mph    
Visibility 10 miles    
Events Rain , Thunderstorm    
T = Trace of Precipitation, MM = Missing Value Source: NWS Daily Summary

Daily Weather History Graph

Daily Weather History Graph

Search for Another Location

Airport or City:

Trip Planner

Search our weather history database for the weather conditions in past years. The results will help you decide how hot, cold, wet, or windy it might be!

Date:

Astronomy

Mar. 29, 2012 Rise Set
Actual Time 7:07 AM CDT 7:40 PM CDT
Civil Twilight 6:40 AM CDT 8:07 PM CDT
Nautical Twilight 6:08 AM CDT 8:39 PM CDT
Astronomical Twilight 5:35 AM CDT 9:11 PM CDT
Moon 11:18 AM CDT (3/29) 1:30 AM CDT (3/29)
Length of Visible Light 13h 27m
Length of Day
12h 33m
Waxing Crescent, 39% of the Moon is Illuminated
Mar 29
Waxing Crescent
Mar 30
First Quarter
Apr 6
Full
Apr 13
Last Quarter
Apr 21
New

Hourly Weather History & Observations

Time (CDT) Temp. Dew Point Humidity Pressure Visibility Wind Dir Wind Speed Gust Speed Precip Events Conditions
12:13 AM 60.8 °F 53.6 °F 77% 29.92 in 10.0 mi ENE 11.5 mph - N/A   Mostly Cloudy
12:53 AM 60.1 °F 53.1 °F 78% 29.89 in 10.0 mi ESE 13.8 mph - N/A   Mostly Cloudy
1:37 AM 60.8 °F 53.6 °F 77% 29.90 in 10.0 mi SE 17.3 mph - N/A Thunderstorm Thunderstorm
1:53 AM 59.0 °F 54.0 °F 83% 29.88 in 5.0 mi SE 18.4 mph - 0.14 in Rain , Thunderstorm Heavy Thunderstorms and Rain
2:42 AM 59.0 °F 55.4 °F 88% 29.89 in 10.0 mi SE 13.8 mph 24.2 mph 0.01 in   Mostly Cloudy
2:53 AM 59.0 °F 55.0 °F 87% 29.86 in 10.0 mi SE 12.7 mph - 0.01 in   Mostly Cloudy
3:53 AM 59.0 °F 55.0 °F 87% 29.83 in 10.0 mi SSE 15.0 mph - N/A   Mostly Cloudy
4:53 AM 59.0 °F 55.0 °F 87% 29.87 in 10.0 mi NE 15.0 mph 20.7 mph N/A   Overcast
5:49 AM 57.2 °F 53.6 °F 88% 29.91 in 10.0 mi East 12.7 mph - N/A   Overcast
5:53 AM 57.9 °F 54.0 °F 87% 29.89 in 10.0 mi East 12.7 mph - N/A   Overcast
6:53 AM 57.0 °F 54.0 °F 89% 29.88 in 10.0 mi East 16.1 mph 20.7 mph N/A   Overcast
7:53 AM 57.0 °F 54.0 °F 89% 29.89 in 10.0 mi East 17.3 mph 25.3 mph N/A   Overcast
8:39 AM 57.2 °F 55.4 °F 94% 29.91 in 10.0 mi ESE 19.6 mph 24.2 mph N/A   Overcast
8:53 AM 57.9 °F 55.0 °F 90% 29.89 in 10.0 mi ESE 17.3 mph - N/A   Overcast
9:53 AM 60.1 °F 57.0 °F 90% 29.86 in 10.0 mi SE 12.7 mph - N/A   Overcast
10:53 AM 64.0 °F 57.9 °F 80% 29.85 in 10.0 mi SE 16.1 mph - N/A   Overcast
11:53 AM 68.0 °F 60.1 °F 76% 29.83 in 10.0 mi SE 15.0 mph 23.0 mph N/A   Overcast
12:08 PM 69.8 °F 60.8 °F 73% 29.84 in 10.0 mi SE 11.5 mph 20.7 mph N/A   Mostly Cloudy
12:53 PM 73.0 °F 62.1 °F 68% 29.82 in 10.0 mi SE 13.8 mph 21.9 mph N/A   Mostly Cloudy
1:33 PM 75.2 °F 62.6 °F 65% 29.81 in 10.0 mi SE 20.7 mph 25.3 mph N/A   Scattered Clouds
1:53 PM 75.9 °F 62.1 °F 62% 29.77 in 10.0 mi SE 21.9 mph 28.8 mph N/A   Partly Cloudy
2:53 PM 77.0 °F 63.0 °F 62% 29.74 in 10.0 mi SE 23.0 mph 29.9 mph N/A   Partly Cloudy
3:53 PM 79.0 °F 63.0 °F 58% 29.70 in 10.0 mi South 19.6 mph 29.9 mph N/A   Scattered Clouds
4:53 PM 79.0 °F 61.0 °F 54% 29.68 in 10.0 mi South 18.4 mph 29.9 mph N/A   Partly Cloudy
5:53 PM 78.1 °F 57.9 °F 50% 29.67 in 10.0 mi SSW 24.2 mph 29.9 mph N/A   Partly Cloudy
6:53 PM 75.0 °F 57.9 °F 55% 29.67 in 10.0 mi South 17.3 mph 26.5 mph N/A   Partly Cloudy
7:53 PM 72.0 °F 57.9 °F 61% 29.68 in 10.0 mi South 12.7 mph - N/A   Scattered Clouds
8:53 PM 71.6 °F 57.2 °F 60% 29.67 in 10.0 mi South 20.7 mph - N/A   Clear
9:53 PM 71.1 °F 55.9 °F 59% 29.70 in 10.0 mi South 19.6 mph 26.5 mph N/A   Partly Cloudy
10:53 PM 70.0 °F 55.0 °F 59% 29.68 in 10.0 mi SSW 20.7 mph 29.9 mph N/A   Clear
11:53 PM 71.1 °F 55.0 °F 57% 29.68 in 10.0 mi SSW 23.0 mph 33.4 mph N/A   Mostly Cloudy